Regional Weather Roundup
Issued by NWS

Home | Current Version | Previous Version | Graphics & Text | Print | Product List | Glossary On
Versions: 1 2 3 4 5 6 7 8 9 10 11 12 13 14 15 16 17 18 19 20 21 22 23 24 25 26 27 28 29 30 31 32 33 34 35 36 37 38 39 40 41 42 43 44 45 46 47 48 49 50
000
ASUS45 KPSR 300810
RWRAZ

ARIZONA HOURLY REGIONAL WEATHER ROUNDUP
NATIONAL WEATHER SERVICE PHOENIX AZ
100 AM MST TUE JUN 30 2015

NOTE: FAIR INDICATES FEW OR NO CLOUDS BELOW 12,000 FEET WITH NO
SIGNIFICANT WEATHER AND/OR OBSTRUCTIONS TO VISIBILITY.

AZZ001>003-036-300900-
NORTHWEST ARIZONA

CITY           SKY/WX    TMP DP  RH WIND       PRES   REMARKS
BULLHEAD CITY  CLOUDY    99  57  25 E28G41    29.82S
KINGMAN        LGT RAIN  76  57  51 S18G30    30.09F
$$

AZZ004>008-015-016-018-300900-
NORTH CENTRAL ARIZONA

CITY           SKY/WX    TMP DP  RH WIND       PRES   REMARKS
GRAND CANYON   MOCLDY    56  53  90 NE3       30.30F
WILLIAMS       CLOUDY    59  55  88 SE5       30.38S
PRESCOTT       CLOUDY    66  63  90 S5        30.19S
FLAGSTAFF      CLOUDY    65  49  56 VRB3      30.33S
PAYSON         MOCLDY    73  48  40 CALM      30.18F
PAGE           PTCLDY    85  49  28 W7        30.07R
$$

AZZ009>014-017-300900-
NORTHEAST ARIZONA

CITY           SKY/WX    TMP DP  RH WIND       PRES   REMARKS
WINSLOW        CLOUDY    73  50  44 E5        30.14S
SAINT JOHNS    PTCLDY    63  57  81 N8        30.21S
WINDOW ROCK    PTCLDY    68  48  48 CALM      30.28F
SHOW LOW       PTCLDY    63  48  59 SW5       30.26R
$$

AZZ023-300900-
GREATER PHOENIX AREA

CITY           SKY/WX    TMP DP  RH WIND       PRES   REMARKS
PHOENIX        CLOUDY    92  64  39 CALM      29.82S
BUCKEYE          N/A     91  61  35 W3        29.82F
LUKE AFB       CLOUDY    91  61  35 SW6       29.81S
DEER VALLEY    MOCLDY    89  62  40 N5        29.85F
SCOTTSDALE     MOCLDY    89  65  44 CALM      29.86F
MESA-GATEWAY   PTCLDY    86  63  45 S3        29.87F
$$

AZZ027-028-300900-
SOUTHWEST MARICOPA COUNTY AND PINAL COUNTY

CITY           SKY/WX    TMP DP  RH WIND       PRES   REMARKS
CASA GRANDE    PTCLDY    88  63  42 CALM      29.85F
GILA BEND      FAIR      93  60  32 SW3       29.81S
$$

AZZ503-504-507>509-300900-
SOUTHEAST ARIZONA

CITY           SKY/WX    TMP DP  RH WIND       PRES   REMARKS
TUCSON         CLEAR     81  65  58 SE3       29.98F
DAVIS-MONTHAN  CLEAR     79  65  60 SE6       29.97F
NOGALES        PTCLDY    69  61  75 NE6       30.08R
SIERRA VISTA   CLEAR     76  57  52 W14       30.12F
DOUGLAS        CLOUDY    78  57  48 NE10      30.10R
SAFFORD        CLEAR     81  56  42 N6        29.97R
$$

AZZ020-021-025-026-031-300900-
SOUTHWEST ARIZONA

CITY           SKY/WX    TMP DP  RH WIND       PRES   REMARKS
YUMA           MOCLDY    90  66  45 S7        29.78F
$$

CAZ031-033-041-043-047-048-061-300900-
SOUTHERN CALIFORNIA

CITY           SKY/WX    TMP DP  RH WIND       PRES   REMARKS
DOWNTOWN L.A.  CLEAR     68  59  73 CALM      29.89F
L.A. AIRPORT   PTCLDY    67  60  78 NW5       29.90F
SAN DIEGO      PTCLDY    69  62  78 NW3       29.91F
BURBANK        CLEAR     74  57  55 E3        29.90F
ONTARIO        PTCLDY    74  58  57 SW5       29.90F
RIVERSIDE      CLEAR     74  60  61 CALM      29.91F
PALM SPRINGS   PTCLDY    95  55  26 CALM      29.81S
EL CENTRO NAS  PTCLDY    90  62  39 SE5       29.76S
IMPERIAL       PTCLDY    93  63  36 SE3       29.74S
BLYTHE         CLOUDY    95  64  35 S13       29.77F
$$

NVZ020-UTZ003-300900-
SOUTHERN NEVADA-UTAH

CITY           SKY/WX    TMP DP  RH WIND       PRES   REMARKS
LAS VEGAS      MOCLDY    97  49  19 S9        29.85R
SALT LAKE CITY MOCLDY    84  53  34 SE7       30.01S
$$

NMZ009-TXZ055-300900-
NEW MEXICO-WEST TEXAS

CITY           SKY/WX    TMP DP  RH WIND       PRES   REMARKS
ALBUQUERQUE    PTCLDY    76  46  34 E17       30.23R
EL PASO        MOCLDY    73  59  61 S5        30.09F
$$


........................KEY........................
SKY/WX - SKY CONDITION/WEATHER
TMP    - TEMPERATURE IN FAHRENHEIT
DP     - DEW POINT IN FAHRENHEIT
RH     - RELATIVE HUMIDITY IN PERCENT
WIND   - DIRECTION AND SPEED IN MILES PER HOUR (MPH)
VRB    - VARIABLE WIND DIRECTION
PRES   - MEAN SEA LEVEL PRESSURE IN INCHES OF MERCURY
         F - FALLING PRESSURE   R - RISING PRESSURE
         S - STEADY PRESSURE
VSB    - VISIBILITY IN MILES
HX     - HEAT INDEX IN FAHRENHEIT
WCI    - WIND CHILL INDEX IN FAHRENHEIT
TC     - TEMPERATURE IN CELSIUS WHICH IS ALSO KNOWN AS
         TEMPERATURE IN CENTIGRADE
AFB    - AIR FORCE BASE
         LUKE AFB IS LUKE AIR FORCE BASE
         DAVIS-MONTHAN IS DAVIS-MONTHAN AIR FORCE BASE
NAS    - NAVAL AIR STATION
         EL CENTRO NAS IS EL CENTRO NAVAL AIR STATION
N/A    - NOT AVAILABLE



USA.gov is the U.S. government's official web portal to all federal, state and local government web resources and services.